| time (UTC) | temp C | wind direction | speed KPH | gust KPH | rain 1hr cm | rain 24hr cm | rain mn cm | humidity % | barometer mb |
| 20260509220504 | 23 | 49 | 11.3 | 25.7 | 0.00 | 0.00 | 0.00 | 20 | 1012.1 |
| 20260509220015 | 24 | 106 | 8.0 | 19.3 | 0.00 | 0.00 | 0.00 | 21 | 1012.2 |
| 20260509215505 | 23 | 346 | 8.0 | 19.3 | 0.00 | 0.00 | 0.00 | 20 | 1012.2 |
| 20260509215010 | 23 | 108 | 9.7 | 17.7 | 0.00 | 0.00 | 0.00 | 21 | 1012.2 |
| 20260509214521 | 23 | 80 | 3.2 | 22.5 | 0.00 | 0.00 | 0.00 | 21 | 1012.2 |
| 20260509214009 | 23 | 32 | 9.7 | 27.4 | 0.00 | 0.00 | 0.00 | 22 | 1012.2 |
| 20260509213504 | 23 | 51 | 8.0 | 27.4 | 0.00 | 0.00 | 0.00 | 22 | 1012.2 |
| 20260509213010 | 24 | 121 | 8.0 | 27.4 | 0.00 | 0.00 | 0.00 | 20 | 1012.3 |
| 20260509212504 | 23 | 32 | 3.2 | 17.7 | 0.00 | 0.00 | 0.00 | 21 | 1012.3 |
| 20260509212007 | 23 | 352 | 4.8 | 24.1 | 0.00 | 0.00 | 0.00 | 21 | 1012.3 |
| 20260509211518 | 23 | 66 | 12.9 | 24.1 | 0.00 | 0.00 | 0.00 | 21 | 1012.4 |
| 20260509211008 | 24 | 61 | 8.0 | 20.9 | 0.00 | 0.00 | 0.00 | 21 | 1012.6 |
| 20260509210507 | 24 | 86 | 9.7 | 20.9 | 0.00 | 0.00 | 0.00 | 21 | 1012.7 |
| 20260509210018 | 23 | 346 | 6.4 | 24.1 | 0.00 | 0.00 | 0.00 | 20 | 1012.6 |
| 20260509205506 | 23 | 44 | 9.7 | 24.1 | 0.00 | 0.00 | 0.00 | 21 | 1012.5 |
| 20260509205003 | 23 | 67 | 11.3 | 22.5 | 0.00 | 0.00 | 0.00 | 21 | 1012.6 |
| 20260509204523 | 24 | 19 | 6.4 | 14.5 | 0.00 | 0.00 | 0.00 | 21 | 1012.7 |
| 20260509204007 | 23 | 58 | 3.2 | 17.7 | 0.00 | 0.00 | 0.00 | 20 | 1012.7 |
| 20260509203509 | 23 | 59 | 8.0 | 19.3 | 0.00 | 0.00 | 0.00 | 22 | 1012.6 |
| 20260509203015 | 23 | 26 | 8.0 | 19.3 | 0.00 | 0.00 | 0.00 | 21 | 1012.8 |
| 20260509202506 | 24 | 288 | 8.0 | 20.9 | 0.00 | 0.00 | 0.00 | 20 | 1012.9 |
| 20260509202007 | 24 | 44 | 8.0 | 20.9 | 0.00 | 0.00 | 0.00 | 20 | 1012.9 |
| 20260509201506 | 24 | 72 | 8.0 | 20.9 | 0.00 | 0.00 | 0.00 | 21 | 1013.1 |
| 20260509201006 | 25 | 58 | 4.8 | 11.3 | 0.00 | 0.00 | 0.00 | 20 | 1013.2 |
| 20260509200504 | 24 | 352 | 3.2 | 9.7 | 0.00 | 0.00 | 0.00 | 21 | 1013.3 |
| 20260509200016 | 23 | 143 | 3.2 | 17.7 | 0.00 | 0.00 | 0.00 | 22 | 1013.3 |
| 20260509195508 | 23 | 119 | 9.7 | 17.7 | 0.00 | 0.00 | 0.00 | 21 | 1013.3 |
| 20260509195009 | 23 | 63 | 6.4 | 17.7 | 0.00 | 0.00 | 0.00 | 20 | 1013.3 |
| 20260509194521 | 23 | 24 | 6.4 | 12.9 | 0.00 | 0.00 | 0.00 | 21 | 1013.3 |
| 20260509194005 | 23 | 32 | 4.8 | 17.7 | 0.00 | 0.00 | 0.00 | 21 | 1013.4 |
| 20260509193503 | 24 | 69 | 8.0 | 17.7 | 0.00 | 0.00 | 0.00 | 20 | 1013.4 |
| 20260509193010 | 23 | 11 | 3.2 | 17.7 | 0.00 | 0.00 | 0.00 | 22 | 1013.3 |
| 20260509192506 | 23 | 93 | 3.2 | 16.1 | 0.00 | 0.00 | 0.00 | 23 | 1013.3 |
| 20260509192008 | 23 | 82 | 6.4 | 16.1 | 0.00 | 0.00 | 0.00 | 21 | 1013.4 |
| 20260509191525 | 23 | 80 | 6.4 | 16.1 | 0.00 | 0.00 | 0.00 | 21 | 1013.4 |
| 20260509191008 | 24 | 35 | 8.0 | 12.9 | 0.00 | 0.00 | 0.00 | 20 | 1013.5 |
| 20260509190507 | 23 | 343 | 3.2 | 17.7 | 0.00 | 0.00 | 0.00 | 21 | 1013.5 |
| 20260509190020 | 23 | 352 | 3.2 | 17.7 | 0.00 | 0.00 | 0.00 | 23 | 1013.4 |
| 20260509185506 | 23 | 55 | 6.4 | 20.9 | 0.00 | 0.00 | 0.00 | 22 | 1013.5 |
| 20260509185007 | 23 | 50 | 11.3 | 20.9 | 0.00 | 0.00 | 0.00 | 21 | 1013.6 |
| 20260509184522 | 23 | 76 | 6.4 | 16.1 | 0.00 | 0.00 | 0.00 | 24 | 1013.7 |
| 20260509184007 | 23 | 5 | 8.0 | 16.1 | 0.00 | 0.00 | 0.00 | 21 | 1013.7 |
| 20260509183510 | 23 | 74 | 3.2 | 14.5 | 0.00 | 0.00 | 0.00 | 22 | 1013.8 |
| 20260509183020 | 23 | 86 | 6.4 | 14.5 | 0.00 | 0.00 | 0.00 | 23 | 1013.8 |
| 20260509182507 | 23 | 88 | 6.4 | 12.9 | 0.00 | 0.00 | 0.00 | 21 | 1013.8 |
| 20260509182010 | 23 | 88 | 3.2 | 14.5 | 0.00 | 0.00 | 0.00 | 21 | 1013.7 |
| 20260509181512 | 23 | 41 | 6.4 | 17.7 | 0.00 | 0.00 | 0.00 | 21 | 1013.8 |
| 20260509181004 | 23 | 336 | 4.8 | 16.1 | 0.00 | 0.00 | 0.00 | 22 | 1013.8 |
| 20260509180507 | 23 | 334 | 6.4 | 14.5 | 0.00 | 0.00 | 0.00 | 20 | 1013.9 |
| 20260509180021 | 23 | 136 | 3.2 | 19.3 | 0.00 | 0.00 | 0.00 | 21 | 1013.9 |
| 20260509175506 | 23 | 98 | 4.8 | 19.3 | 0.00 | 0.00 | 0.00 | 19 | 1013.9 |
| 20260509175011 | 23 | 140 | 6.4 | 22.5 | 0.00 | 0.00 | 0.00 | 22 | 1013.8 |
| 20260509174522 | 23 | 360 | 6.4 | 22.5 | 0.00 | 0.00 | 0.00 | 22 | 1013.8 |
| 20260509174008 | 23 | 134 | 3.2 | 9.7 | 0.00 | 0.00 | 0.00 | 18 | 1013.7 |
| 20260509173506 | 23 | 138 | 1.6 | 11.3 | 0.00 | 0.00 | 0.00 | 16 | 1013.8 |
| 20260509173014 | 23 | 47 | 1.6 | 16.1 | 0.00 | 0.00 | 0.00 | 18 | 1013.9 |
| 20260509172510 | 23 | 51 | 4.8 | 16.1 | 0.00 | 0.00 | 0.00 | 18 | 1013.8 |
| 20260509172010 | 23 | 15 | 1.6 | 17.7 | 0.00 | 0.00 | 0.00 | 18 | 1013.7 |
| 20260509171523 | 23 | 73 | 4.8 | 17.7 | 0.00 | 0.00 | 0.00 | 18 | 1013.7 |
| 20260509171006 | 23 | 40 | 3.2 | 12.9 | 0.00 | 0.00 | 0.00 | 17 | 1013.6 |
| 20260509170510 | 23 | 77 | 4.8 | 11.3 | 0.00 | 0.00 | 0.00 | 18 | 1013.7 |
| 20260509170020 | 23 | 70 | 3.2 | 11.3 | 0.00 | 0.00 | 0.00 | 18 | 1013.7 |
| 20260509165503 | 22 | 37 | 6.4 | 11.3 | 0.00 | 0.00 | 0.00 | 17 | 1013.8 |
| 20260509165006 | 22 | 59 | 3.2 | 9.7 | 0.00 | 0.00 | 0.00 | 18 | 1013.7 |
| 20260509164521 | 22 | 57 | 4.8 | 14.5 | 0.00 | 0.00 | 0.00 | 18 | 1013.8 |
| 20260509164008 | 22 | 23 | 4.8 | 12.9 | 0.00 | 0.00 | 0.00 | 18 | 1013.7 |
| 20260509163506 | 22 | 71 | 4.8 | 12.9 | 0.00 | 0.00 | 0.00 | 18 | 1013.8 |
| 20260509163025 | 22 | 12 | 4.8 | 16.1 | 0.00 | 0.00 | 0.00 | 19 | 1013.8 |
| 20260509162508 | 22 | 76 | 6.4 | 20.9 | 0.00 | 0.00 | 0.00 | 21 | 1013.8 |
| 20260509162013 | 22 | 65 | 8.0 | 20.9 | 0.00 | 0.00 | 0.00 | 22 | 1013.8 |
| 20260509161515 | 22 | 65 | 8.0 | 19.3 | 0.00 | 0.00 | 0.00 | 19 | 1013.6 |
| 20260509161010 | 22 | 64 | 4.8 | 14.5 | 0.00 | 0.00 | 0.00 | 19 | 1013.6 |
| 20260509160509 | 22 | 90 | 4.8 | 16.1 | 0.00 | 0.00 | 0.00 | 22 | 1013.5 |
| 20260509160029 | 21 | 46 | 4.8 | 16.1 | 0.00 | 0.00 | 0.00 | 22 | 1013.4 |
| 20260509155509 | 21 | 150 | 3.2 | 22.5 | 0.00 | 0.00 | 0.00 | 23 | 1013.4 |
| 20260509155007 | 21 | 92 | 6.4 | 22.5 | 0.00 | 0.00 | 0.00 | 23 | 1013.3 |
| 20260509154524 | 21 | 60 | 4.8 | 14.5 | 0.00 | 0.00 | 0.00 | 25 | 1013.3 |
| 20260509154009 | 21 | 9 | 3.2 | 12.9 | 0.00 | 0.00 | 0.00 | 25 | 1013.4 |
| 20260509153509 | 21 | 296 | 3.2 | 11.3 | 0.00 | 0.00 | 0.00 | 25 | 1013.5 |
| 20260509153031 | 21 | 352 | 3.2 | 11.3 | 0.00 | 0.00 | 0.00 | 19 | 1013.5 |
| 20260509152507 | 21 | 352 | 3.2 | 9.7 | 0.00 | 0.00 | 0.00 | 19 | 1013.6 |
| 20260509152004 | 21 | 302 | 3.2 | 6.4 | 0.00 | 0.00 | 0.00 | 19 | 1013.6 |
| 20260509151504 | 20 | 290 | 1.6 | 4.8 | 0.00 | 0.00 | 0.00 | 24 | 1013.6 |
| 20260509151003 | 20 | 336 | 0.0 | 3.2 | 0.00 | 0.00 | 0.00 | 27 | 1013.8 |
| 20260509150504 | 20 | 253 | 1.6 | 3.2 | 0.00 | 0.00 | 0.00 | 26 | 1013.7 |
| 20260509150019 | 20 | 9 | 1.6 | 9.7 | 0.00 | 0.00 | 0.00 | 28 | 1013.8 |
| 20260509145502 | 19 | 62 | 1.6 | 9.7 | 0.00 | 0.00 | 0.00 | 28 | 1013.9 |
| 20260509145003 | 19 | 5 | 1.6 | 6.4 | 0.00 | 0.00 | 0.00 | 26 | 1013.9 |
| 20260509144512 | 18 | 248 | 1.6 | 6.4 | 0.00 | 0.00 | 0.00 | 27 | 1013.8 |
| 20260509144008 | 18 | 5 | 0.0 | 4.8 | 0.00 | 0.00 | 0.00 | 27 | 1013.7 |
| 20260509143503 | 17 | 360 | 1.6 | 6.4 | 0.00 | 0.00 | 0.00 | 28 | 1013.7 |
| 20260509143008 | 17 | 24 | 3.2 | 6.4 | 0.00 | 0.00 | 0.00 | 30 | 1013.7 |
| 20260509142508 | 16 | 276 | 0.0 | 4.8 | 0.00 | 0.00 | 0.00 | 34 | 1013.8 |
| 20260509142008 | 15 | 254 | 0.0 | 4.8 | 0.00 | 0.00 | 0.00 | 36 | 1013.9 |
| 20260509141503 | 15 | 271 | 0.0 | 3.2 | 0.00 | 0.00 | 0.00 | 37 | 1013.9 |
| 20260509141003 | 14 | 242 | 1.6 | 3.2 | 0.00 | 0.00 | 0.00 | 37 | 1014.0 |
| 20260509140503 | 14 | 270 | 0.0 | 3.2 | 0.00 | 0.00 | 0.00 | 37 | 1014.0 |
| 20260509140003 | 15 | 254 | 0.0 | 3.2 | 0.00 | 0.00 | 0.00 | 38 | 1014.1 |
| 20260509135504 | 14 | 252 | 0.0 | 3.2 | 0.00 | 0.00 | 0.00 | 36 | 1014.0 |
| 20260509135003 | 14 | 313 | 0.0 | 3.2 | 0.00 | 0.00 | 0.00 | 36 | 1014.0 |
| 20260509134527 | 13 | 300 | 0.0 | 3.2 | 0.00 | 0.00 | 0.00 | 37 | 1014.0 |
| 20260509134007 | 13 | 302 | 0.0 | 3.2 | 0.00 | 0.00 | 0.00 | 39 | 1014.0 |
| 20260509133504 | 13 | 311 | 0.0 | 4.8 | 0.00 | 0.00 | 0.00 | 40 | 1013.9 |
| 20260509133010 | 13 | 232 | 1.6 | 4.8 | 0.00 | 0.00 | 0.00 | 41 | 1013.8 |
| 20260509132503 | 12 | 253 | 0.0 | 9.7 | 0.00 | 0.00 | 0.00 | 40 | 1013.9 |
| 20260509132003 | 12 | 245 | 3.2 | 9.7 | 0.00 | 0.00 | 0.00 | 42 | 1013.8 |
| 20260509131511 | 11 | 259 | 1.6 | 6.4 | 0.00 | 0.00 | 0.00 | 48 | 1013.7 |
| 20260509131004 | 11 | 245 | 0.0 | 3.2 | 0.00 | 0.00 | 0.00 | 51 | 1013.6 |
| 20260509130504 | 11 | 210 | 0.0 | 3.2 | 0.00 | 0.00 | 0.00 | 53 | 1013.7 |
| 20260509130016 | 10 | 213 | 0.0 | 4.8 | 0.00 | 0.00 | 0.00 | 53 | 1013.6 |
| 20260509125502 | 10 | 227 | 1.6 | 6.4 | 0.00 | 0.00 | 0.00 | 54 | 1013.6 |
| 20260509125002 | 10 | 240 | 1.6 | 6.4 | 0.00 | 0.00 | 0.00 | 54 | 1013.5 |
| 20260509124506 | 9 | 227 | 0.0 | 3.2 | 0.00 | 0.00 | 0.00 | 59 | 1013.4 |
| 20260509124004 | 9 | 210 | 1.6 | 3.2 | 0.00 | 0.00 | 0.00 | 60 | 1013.3 |
| 20260509123504 | 8 | 241 | 1.6 | 4.8 | 0.00 | 0.00 | 0.00 | 60 | 1013.2 |
| 20260509123009 | 8 | 241 | 1.6 | 4.8 | 0.00 | 0.00 | 0.00 | 62 | 1013.1 |
| 20260509122508 | 8 | 237 | 1.6 | 4.8 | 0.00 | 0.00 | 0.00 | 65 | 1013.1 |
| 20260509122015 | 8 | 238 | 1.6 | 3.2 | 0.00 | 0.00 | 0.00 | 64 | 1012.9 |
| 20260509121512 | 8 | 313 | 1.6 | 4.8 | 0.00 | 0.00 | 0.00 | 67 | 1013.0 |
| 20260509121005 | 7 | 247 | 0.0 | 4.8 | 0.00 | 0.00 | 0.00 | 67 | 1012.9 |
| 20260509120504 | 7 | 186 | 1.6 | 4.8 | 0.00 | 0.00 | 0.00 | 68 | 1012.8 |
| 20260509120007 | 7 | 215 | 0.0 | 3.2 | 0.00 | 0.00 | 0.00 | 67 | 1012.7 |
| 20260509115504 | 7 | 238 | 0.0 | 4.8 | 0.00 | 0.00 | 0.00 | 67 | 1012.7 |
| 20260509115007 | 7 | 352 | 0.0 | 4.8 | 0.00 | 0.00 | 0.00 | 68 | 1012.9 |
| 20260509114528 | 7 | 231 | 0.0 | 3.2 | 0.00 | 0.00 | 0.00 | 66 | 1012.8 |
| 20260509114007 | 7 | 221 | 0.0 | 3.2 | 0.00 | 0.00 | 0.00 | 66 | 1012.7 |
| 20260509113503 | 7 | 224 | 1.6 | 3.2 | 0.00 | 0.00 | 0.00 | 66 | 1012.7 |
| 20260509113003 | 8 | 221 | 1.6 | 3.2 | 0.00 | 0.00 | 0.00 | 67 | 1012.7 |
| 20260509112503 | 8 | 191 | 1.6 | 3.2 | 0.00 | 0.00 | 0.00 | 63 | 1012.7 |
| 20260509112009 | 8 | 223 | 0.0 | 3.2 | 0.00 | 0.00 | 0.00 | 69 | 1012.7 |
| 20260509111509 | 7 | 224 | 0.0 | 3.2 | 0.00 | 0.00 | 0.00 | 65 | 1012.7 |
| 20260509111003 | 7 | 221 | 0.0 | 3.2 | 0.00 | 0.00 | 0.00 | 66 | 1012.6 |
| 20260509110507 | 8 | 198 | 0.0 | 3.2 | 0.00 | 0.00 | 0.00 | 67 | 1012.6 |
| 20260509110020 | 8 | 184 | 0.0 | 3.2 | 0.00 | 0.00 | 0.00 | 67 | 1012.4 |
| 20260509105509 | 8 | 184 | 0.0 | 3.2 | 0.00 | 0.00 | 0.00 | 63 | 1012.6 |
| 20260509105003 | 8 | 184 | 0.0 | 3.2 | 0.00 | 0.00 | 0.00 | 65 | 1012.5 |
| 20260509104502 | 8 | 184 | 0.0 | 3.2 | 0.00 | 0.00 | 0.00 | 64 | 1012.4 |
| 20260509104003 | 8 | 218 | 0.0 | 3.2 | 0.00 | 0.00 | 0.00 | 63 | 1012.4 |
| 20260509103503 | 8 | 215 | 0.0 | 3.2 | 0.00 | 0.00 | 0.00 | 65 | 1012.2 |
| 20260509103014 | 8 | 212 | 0.0 | 3.2 | 0.00 | 0.00 | 0.00 | 65 | 1012.1 |
| 20260509102507 | 8 | 185 | 0.0 | 3.2 | 0.00 | 0.00 | 0.00 | 65 | 1012.1 |
| 20260509102010 | 8 | 207 | 0.0 | 1.6 | 0.00 | 0.00 | 0.00 | 69 | 1012.1 |
| 20260509101532 | 8 | 220 | 1.6 | 3.2 | 0.00 | 0.00 | 0.00 | 68 | 1012.1 |
| 20260509101003 | 8 | 205 | 0.0 | 3.2 | 0.00 | 0.00 | 0.00 | 71 | 1012.2 |
| 20260509100502 | 8 | 200 | 0.0 | 3.2 | 0.00 | 0.00 | 0.00 | 70 | 1012.2 |
| 20260509100008 | 8 | 200 | 0.0 | 3.2 | 0.00 | 0.00 | 0.00 | 67 | 1012.1 |
| 20260509095506 | 8 | 206 | 0.0 | 3.2 | 0.00 | 0.00 | 0.00 | 68 | 1012.2 |
| 20260509095009 | 8 | 217 | 0.0 | 3.2 | 0.00 | 0.00 | 0.00 | 70 | 1012.2 |
| 20260509094527 | 8 | 271 | 0.0 | 3.2 | 0.00 | 0.00 | 0.00 | 67 | 1012.2 |
| 20260509094008 | 7 | 328 | 0.0 | 4.8 | 0.00 | 0.00 | 0.00 | 73 | 1012.2 |
| 20260509093509 | 7 | 348 | 0.0 | 4.8 | 0.00 | 0.00 | 0.00 | 74 | 1012.2 |
| 20260509093002 | 7 | 220 | 1.6 | 3.2 | 0.00 | 0.00 | 0.00 | 75 | 1012.2 |
| 20260509092505 | 7 | 315 | 0.0 | 4.8 | 0.00 | 0.00 | 0.00 | 75 | 1012.2 |
| 20260509090024 | 8 | 187 | 0.0 | 3.2 | 0.00 | 0.00 | 0.00 | 74 | 1011.9 |
| 20260509085509 | 8 | 45 | 0.0 | 3.2 | 0.00 | 0.00 | 0.00 | 74 | 1011.9 |
| 20260509085003 | 8 | 173 | 0.0 | 3.2 | 0.00 | 0.00 | 0.00 | 74 | 1011.8 |
| 20260509084506 | 8 | 169 | 0.0 | 3.2 | 0.00 | 0.00 | 0.00 | 75 | 1011.7 |
| 20260509084006 | 8 | 193 | 1.6 | 3.2 | 0.00 | 0.00 | 0.00 | 75 | 1011.7 |
| 20260509083506 | 8 | 223 | 1.6 | 4.8 | 0.00 | 0.00 | 0.00 | 72 | 1011.6 |
| 20260509083017 | 8 | 185 | 1.6 | 4.8 | 0.00 | 0.00 | 0.00 | 75 | 1011.7 |
| 20260509082507 | 7 | 194 | 1.6 | 3.2 | 0.00 | 0.00 | 0.00 | 78 | 1011.6 |
| 20260509082012 | 7 | 191 | 1.6 | 3.2 | 0.00 | 0.00 | 0.00 | 79 | 1011.8 |
| 20260509081528 | 8 | 195 | 1.6 | 3.2 | 0.00 | 0.00 | 0.00 | 78 | 1011.9 |
| 20260509081005 | 8 | 133 | 0.0 | 3.2 | 0.00 | 0.00 | 0.00 | 78 | 1012.0 |
| 20260509080503 | 8 | 133 | 0.0 | 3.2 | 0.00 | 0.00 | 0.00 | 78 | 1012.1 |
| 20260509080010 | 8 | 133 | 0.0 | 3.2 | 0.00 | 0.00 | 0.00 | 77 | 1012.0 |
| 20260509075506 | 8 | 133 | 0.0 | 3.2 | 0.00 | 0.00 | 0.00 | 77 | 1012.1 |
| 20260509075007 | 8 | 133 | 0.0 | 3.2 | 0.00 | 0.00 | 0.00 | 77 | 1012.1 |
| 20260509074531 | 8 | 192 | 0.0 | 3.2 | 0.00 | 0.00 | 0.00 | 77 | 1012.2 |
| 20260509074006 | 8 | 192 | 0.0 | 3.2 | 0.00 | 0.00 | 0.00 | 76 | 1012.3 |
| 20260509073511 | 8 | 189 | 0.0 | 3.2 | 0.00 | 0.00 | 0.00 | 76 | 1012.4 |
| 20260509073005 | 8 | 196 | 1.6 | 3.2 | 0.00 | 0.00 | 0.00 | 76 | 1012.5 |
| 20260509072504 | 8 | 223 | 0.0 | 3.2 | 0.00 | 0.00 | 0.00 | 77 | 1012.6 |
| 20260509072006 | 8 | 169 | 0.0 | 3.2 | 0.00 | 0.00 | 0.00 | 75 | 1012.7 |
| 20260509071512 | 8 | 169 | 0.0 | 3.2 | 0.00 | 0.00 | 0.00 | 75 | 1012.7 |
| 20260509071007 | 8 | 169 | 0.0 | 3.2 | 0.00 | 0.00 | 0.00 | 77 | 1012.8 |
| 20260509070509 | 8 | 169 | 0.0 | 3.2 | 0.00 | 0.00 | 0.00 | 77 | 1012.9 |
| 20260509070026 | 8 | 187 | 0.0 | 3.2 | 0.00 | 0.00 | 0.00 | 77 | 1012.9 |
| 20260509065506 | 9 | 196 | 0.0 | 3.2 | 0.00 | 0.00 | 0.00 | 76 | 1012.9 |
| 20260509065003 | 9 | 196 | 0.0 | 3.2 | 0.00 | 0.00 | 0.00 | 76 | 1012.9 |
| 20260509064508 | 9 | 196 | 0.0 | 3.2 | 0.00 | 0.00 | 0.00 | 76 | 1012.9 |
| 20260509064006 | 9 | 215 | 0.0 | 3.2 | 0.00 | 0.00 | 0.00 | 75 | 1013.0 |
| 20260509063507 | 9 | 218 | 0.0 | 3.2 | 0.00 | 0.00 | 0.00 | 74 | 1012.9 |
| 20260509063025 | 10 | 225 | 0.0 | 3.2 | 0.00 | 0.00 | 0.00 | 73 | 1012.9 |
| 20260509062508 | 10 | 225 | 0.0 | 3.2 | 0.00 | 0.00 | 0.00 | 74 | 1013.0 |
| 20260509062017 | 10 | 225 | 0.0 | 3.2 | 0.00 | 0.00 | 0.00 | 73 | 1012.9 |
| 20260509061528 | 10 | 247 | 0.0 | 3.2 | 0.00 | 0.00 | 0.00 | 73 | 1013.0 |
| 20260509061005 | 10 | 247 | 0.0 | 3.2 | 0.00 | 0.00 | 0.00 | 71 | 1013.0 |
| 20260509060502 | 10 | 246 | 0.0 | 3.2 | 0.00 | 0.00 | 0.00 | 71 | 1013.0 |
| 20260509060017 | 10 | 190 | 0.0 | 3.2 | 0.00 | 0.00 | 0.00 | 71 | 1013.1 |
| 20260509055503 | 10 | 163 | 0.0 | 3.2 | 0.00 | 0.00 | 0.00 | 69 | 1013.0 |
| 20260509055006 | 11 | 233 | 0.0 | 3.2 | 0.00 | 0.00 | 0.00 | 68 | 1013.1 |
| 20260509054527 | 11 | 227 | 0.0 | 3.2 | 0.00 | 0.00 | 0.00 | 67 | 1013.1 |
| 20260509054008 | 11 | 227 | 0.0 | 3.2 | 0.00 | 0.00 | 0.00 | 66 | 1013.1 |
| 20260509053510 | 11 | 220 | 0.0 | 3.2 | 0.00 | 0.00 | 0.00 | 66 | 1013.2 |
| 20260509053029 | 11 | 220 | 0.0 | 3.2 | 0.00 | 0.00 | 0.00 | 66 | 1013.3 |
| 20260509052502 | 12 | 220 | 0.0 | 3.2 | 0.00 | 0.00 | 0.00 | 64 | 1013.4 |
| 20260509052003 | 12 | 206 | 0.0 | 3.2 | 0.00 | 0.00 | 0.00 | 64 | 1013.3 |
| 20260509051512 | 12 | 248 | 0.0 | 3.2 | 0.00 | 0.00 | 0.00 | 62 | 1013.5 |
| 20260509051008 | 12 | 218 | 1.6 | 3.2 | 0.00 | 0.00 | 0.00 | 62 | 1013.5 |
| 20260509050507 | 12 | 184 | 0.0 | 3.2 | 0.00 | 0.00 | 0.00 | 66 | 1013.6 |
| 20260509050022 | 12 | 158 | 0.0 | 3.2 | 0.00 | 0.00 | 0.00 | 64 | 1013.7 |
| 20260509045513 | 12 | 240 | 1.6 | 3.2 | 0.00 | 0.00 | 0.00 | 66 | 1013.8 |
| 20260509045011 | 12 | 98 | 0.0 | 3.2 | 0.00 | 0.00 | 0.00 | 65 | 1013.8 |
| 20260509044506 | 12 | 42 | 0.0 | 3.2 | 0.00 | 0.00 | 0.00 | 65 | 1013.9 |
| 20260509044010 | 12 | 90 | 0.0 | 3.2 | 0.00 | 0.00 | 0.00 | 65 | 1013.9 |
| 20260509043509 | 12 | 234 | 0.0 | 3.2 | 0.00 | 0.00 | 0.00 | 65 | 1014.0 |
| 20260509043018 | 12 | 234 | 0.0 | 3.2 | 0.00 | 0.00 | 0.00 | 65 | 1014.0 |
| 20260509042509 | 12 | 234 | 1.6 | 3.2 | 0.00 | 0.00 | 0.00 | 61 | 1014.1 |
| 20260509042014 | 12 | 242 | 0.0 | 3.2 | 0.00 | 0.00 | 0.00 | 63 | 1014.2 |
| 20260509041544 | 12 | 242 | 0.0 | 0.0 | 0.00 | 0.00 | 0.00 | 63 | 1014.2 |
| 20260509041009 | 12 | 242 | 0.0 | 0.0 | 0.00 | 0.00 | 0.00 | 61 | 1014.3 |
| 20260509040506 | 13 | 242 | 0.0 | 0.0 | 0.00 | 0.00 | 0.00 | 61 | 1014.3 |
| 20260509040012 | 13 | 242 | 0.0 | 3.2 | 0.00 | 0.00 | 0.00 | 61 | 1014.4 |
| 20260509035507 | 13 | 242 | 0.0 | 3.2 | 0.00 | 0.00 | 0.00 | 61 | 1014.5 |
| 20260509035005 | 13 | 248 | 0.0 | 3.2 | 0.00 | 0.00 | 0.00 | 61 | 1014.5 |
| 20260509034522 | 13 | 220 | 0.0 | 3.2 | 0.00 | 0.00 | 0.00 | 61 | 1014.5 |
| 20260509034007 | 13 | 201 | 0.0 | 3.2 | 0.00 | 0.00 | 0.00 | 60 | 1014.5 |
| 20260509033511 | 13 | 202 | 0.0 | 3.2 | 0.00 | 0.00 | 0.00 | 60 | 1014.5 |
| 20260509033028 | 13 | 202 | 0.0 | 3.2 | 0.00 | 0.00 | 0.00 | 60 | 1014.5 |
| 20260509032504 | 13 | 207 | 0.0 | 1.6 | 0.00 | 0.00 | 0.00 | 59 | 1014.5 |
| 20260509032003 | 13 | 207 | 0.0 | 3.2 | 0.00 | 0.00 | 0.00 | 58 | 1014.5 |
| 20260509031515 | 14 | 207 | 0.0 | 3.2 | 0.00 | 0.00 | 0.00 | 57 | 1014.5 |
| 20260509031007 | 14 | 207 | 0.0 | 3.2 | 0.00 | 0.00 | 0.00 | 56 | 1014.5 |
| 20260509030511 | 15 | 209 | 0.0 | 3.2 | 0.00 | 0.00 | 0.00 | 55 | 1014.5 |
| 20260509030028 | 15 | 209 | 0.0 | 3.2 | 0.00 | 0.00 | 0.00 | 54 | 1014.4 |
| 20260509025510 | 15 | 190 | 0.0 | 3.2 | 0.00 | 0.00 | 0.00 | 52 | 1014.3 |
| 20260509025012 | 15 | 190 | 0.0 | 3.2 | 0.00 | 0.00 | 0.00 | 51 | 1014.2 |
| 20260509024511 | 15 | 191 | 0.0 | 3.2 | 0.00 | 0.00 | 0.00 | 49 | 1014.2 |
| 20260509024007 | 15 | 190 | 1.6 | 3.2 | 0.00 | 0.00 | 0.00 | 50 | 1014.1 |
| 20260509023508 | 16 | 128 | 0.0 | 3.2 | 0.00 | 0.00 | 0.00 | 49 | 1014.0 |
| 20260509023026 | 16 | 190 | 0.0 | 3.2 | 0.00 | 0.00 | 0.00 | 48 | 1013.9 |
| 20260509022508 | 16 | 187 | 1.6 | 3.2 | 0.00 | 0.00 | 0.00 | 47 | 1013.8 |
| 20260509022013 | 16 | 155 | 0.0 | 3.2 | 0.00 | 0.00 | 0.00 | 47 | 1013.8 |
| 20260509021533 | 17 | 155 | 0.0 | 3.2 | 0.00 | 0.00 | 0.00 | 46 | 1013.8 |
| 20260509021009 | 17 | 103 | 0.0 | 3.2 | 0.00 | 0.00 | 0.00 | 46 | 1013.7 |
| 20260509020508 | 17 | 103 | 0.0 | 3.2 | 0.00 | 0.00 | 0.00 | 44 | 1013.6 |
| 20260509020024 | 17 | 103 | 0.0 | 3.2 | 0.00 | 0.00 | 0.00 | 44 | 1013.6 |
| 20260509015505 | 18 | 103 | 0.0 | 3.2 | 0.00 | 0.00 | 0.00 | 42 | 1013.5 |
| 20260509015010 | 18 | 84 | 0.0 | 3.2 | 0.00 | 0.00 | 0.00 | 41 | 1013.5 |
| 20260509014522 | 18 | 82 | 0.0 | 3.2 | 0.00 | 0.00 | 0.00 | 42 | 1013.5 |
| 20260509014008 | 18 | 82 | 0.0 | 3.2 | 0.00 | 0.00 | 0.00 | 42 | 1013.5 |
| 20260509013513 | 18 | 92 | 0.0 | 3.2 | 0.00 | 0.00 | 0.00 | 41 | 1013.5 |
| 20260509013037 | 18 | 71 | 0.0 | 3.2 | 0.00 | 0.00 | 0.00 | 40 | 1013.5 |
| 20260509012506 | 19 | 110 | 0.0 | 4.8 | 0.00 | 0.00 | 0.00 | 41 | 1013.5 |
| 20260509012007 | 19 | 101 | 1.6 | 4.8 | 0.00 | 0.00 | 0.00 | 39 | 1013.5 |
| 20260509011520 | 19 | 102 | 0.0 | 6.4 | 0.00 | 0.00 | 0.00 | 39 | 1013.5 |
| 20260509011007 | 20 | 105 | 3.2 | 6.4 | 0.00 | 0.00 | 0.00 | 38 | 1013.4 |
| 20260509010515 | 20 | 113 | 1.6 | 4.8 | 0.00 | 0.00 | 0.00 | 37 | 1013.3 |
| 20260509010028 | 20 | 130 | 0.0 | 4.8 | 0.00 | 0.00 | 0.00 | 37 | 1013.3 |
| 20260509005509 | 20 | 78 | 1.6 | 4.8 | 0.00 | 0.00 | 0.00 | 36 | 1013.3 |
| 20260509005010 | 20 | 205 | 0.0 | 4.8 | 0.00 | 0.00 | 0.00 | 36 | 1013.3 |
| 20260509004517 | 20 | 150 | 1.6 | 4.8 | 0.00 | 0.00 | 0.00 | 36 | 1013.3 |
| 20260509004007 | 20 | 155 | 0.0 | 6.4 | 0.00 | 0.00 | 0.00 | 36 | 1013.4 |
| 20260509003509 | 20 | 166 | 0.0 | 6.4 | 0.00 | 0.00 | 0.00 | 36 | 1013.3 |
| 20260509003024 | 20 | 100 | 1.6 | 6.4 | 0.00 | 0.00 | 0.00 | 37 | 1013.3 |
| 20260509002513 | 21 | 115 | 1.6 | 6.4 | 0.00 | 0.00 | 0.00 | 36 | 1013.3 |
| 20260509002010 | 21 | 92 | 1.6 | 6.4 | 0.00 | 0.00 | 0.00 | 36 | 1013.3 |
| 20260509001529 | 21 | 61 | 1.6 | 6.4 | 0.00 | 0.00 | 0.00 | 35 | 1013.3 |
| 20260509001010 | 21 | 55 | 1.6 | 8.0 | 0.00 | 0.00 | 0.00 | 35 | 1013.3 |
| 20260509000508 | 21 | 84 | 3.2 | 8.0 | 0.00 | 0.00 | 0.00 | 35 | 1013.3 |
| 20260509000016 | 21 | 74 | 3.2 | 6.4 | 0.00 | 0.00 | 0.00 | 34 | 1013.4 |
| 20260508235507 | 21 | 40 | 1.6 | 11.3 | 0.00 | 0.00 | 0.00 | 34 | 1013.4 |
| 20260508235012 | 21 | 86 | 3.2 | 12.9 | 0.00 | 0.00 | 0.00 | 34 | 1013.4 |
| 20260508234529 | 21 | 149 | 3.2 | 12.9 | 0.00 | 0.00 | 0.00 | 34 | 1013.4 |
| 20260508234011 | 21 | 42 | 3.2 | 6.4 | 0.00 | 0.00 | 0.00 | 35 | 1013.4 |
| 20260508233512 | 21 | 165 | 1.6 | 6.4 | 0.00 | 0.00 | 0.00 | 35 | 1013.4 |
| 20260508233030 | 21 | 44 | 1.6 | 6.4 | 0.00 | 0.00 | 0.00 | 34 | 1013.4 |
| 20260508232507 | 21 | 75 | 3.2 | 9.7 | 0.00 | 0.00 | 0.00 | 35 | 1013.4 |
| 20260508232010 | 21 | 69 | 1.6 | 9.7 | 0.00 | 0.00 | 0.00 | 35 | 1013.3 |
| 20260508231521 | 21 | 65 | 1.6 | 9.7 | 0.00 | 0.00 | 0.00 | 34 | 1013.3 |
| 20260508231007 | 21 | 173 | 4.8 | 9.7 | 0.00 | 0.00 | 0.00 | 33 | 1013.4 |
| 20260508230510 | 22 | 104 | 3.2 | 9.7 | 0.00 | 0.00 | 0.00 | 34 | 1013.5 |
| 20260508230039 | 22 | 103 | 0.0 | 9.7 | 0.00 | 0.00 | 0.00 | 34 | 1013.5 |
| 20260508225513 | 22 | 183 | 1.6 | 9.7 | 0.00 | 0.00 | 0.00 | 35 | 1013.4 |
| 20260508225009 | 22 | 184 | 1.6 | 6.4 | 0.00 | 0.00 | 0.00 | 34 | 1013.4 |
| 20260508224523 | 22 | 136 | 1.6 | 6.4 | 0.00 | 0.00 | 0.00 | 34 | 1013.5 |
| 20260508224006 | 21 | 59 | 3.2 | 6.4 | 0.00 | 0.00 | 0.00 | 35 | 1013.4 |
| 20260508223509 | 21 | 96 | 1.6 | 8.0 | 0.00 | 0.00 | 0.00 | 35 | 1013.4 |
| 20260508223028 | 22 | 36 | 3.2 | 8.0 | 0.00 | 0.00 | 0.00 | 35 | 1013.5 |
| 20260508222511 | 21 | 275 | 1.6 | 9.7 | 0.00 | 0.00 | 0.00 | 36 | 1013.5 |
| 20260508222010 | 21 | 197 | 3.2 | 9.7 | 0.00 | 0.00 | 0.00 | 35 | 1013.6 |
| 20260508221531 | 21 | 157 | 3.2 | 4.8 | 0.00 | 0.00 | 0.00 | 36 | 1013.6 |
| 20260508221009 | 21 | 301 | 1.6 | 4.8 | 0.00 | 0.00 | 0.00 | 36 | 1013.7 |